| time (UTC) | temp F | wind direction | speed knots | gust knots | rain 1hr in | rain 24hr in | rain mn in | humidity % | barometer mb |
| 20260506170046 | 64 | 107 | 0.0 | 0.0 | 0.00 | 0.00 | 0.00 | 66 | 1020.3 |
| 20260506164550 | 63 | 209 | 0.0 | 0.0 | 0.00 | 0.00 | 0.00 | 66 | 1020.3 |
| 20260506163034 | 62 | 172 | 0.0 | 0.0 | 0.00 | 0.00 | 0.00 | 61 | 1020.4 |
| 20260506161527 | 60 | 174 | 0.0 | 0.0 | 0.00 | 0.00 | 0.00 | 50 | 1020.4 |
| 20260506160025 | 57 | 188 | 0.0 | 0.0 | 0.00 | 0.00 | 0.00 | 40 | 1020.5 |
| 20260506154518 | 56 | 190 | 0.0 | 0.0 | 0.00 | 0.00 | 0.00 | 28 | 1020.4 |
| 20260506153013 | 55 | 197 | 0.0 | 0.0 | 0.00 | 0.00 | 0.00 | 26 | 1020.3 |
| 20260506151511 | 54 | 280 | 0.0 | 0.0 | 0.00 | 0.00 | 0.00 | 13 | 1020.3 |
| 20260506150005 | 54 | 305 | 0.0 | 0.0 | 0.00 | 0.00 | 0.00 | 2 | 1020.2 |
| 20260506144605 | 53 | 305 | 0.0 | 0.0 | 0.00 | 0.00 | 0.00 | 1 | 1020.1 |
| 20260506143056 | 53 | 305 | 0.0 | 0.0 | 0.00 | 0.00 | 0.00 | 1 | 1020.0 |
| 20260506141551 | 53 | 244 | 0.0 | 0.0 | 0.00 | 0.00 | 0.00 | 1 | 1019.9 |
| 20260506140047 | 52 | 244 | 0.0 | 0.0 | 0.00 | 0.00 | 0.00 | 1 | 1019.8 |
| 20260506134543 | 52 | 244 | 0.0 | 0.0 | 0.00 | 0.00 | 0.00 | 1 | 1019.6 |
| 20260506133049 | 52 | 244 | 0.0 | 0.0 | 0.00 | 0.00 | 0.00 | 1 | 1019.6 |
| 20260506131534 | 52 | 244 | 0.0 | 0.0 | 0.00 | 0.00 | 0.00 | 1 | 1019.5 |
| 20260506130030 | 52 | 244 | 0.0 | 0.0 | 0.00 | 0.00 | 0.00 | 2 | 1019.5 |
| 20260506124525 | 52 | 244 | 0.0 | 0.0 | 0.00 | 0.00 | 0.00 | 3 | 1019.4 |
| 20260506123021 | 52 | 244 | 0.0 | 0.0 | 0.00 | 0.00 | 0.00 | 3 | 1019.3 |
| 20260506121516 | 52 | 244 | 0.0 | 0.0 | 0.00 | 0.00 | 0.00 | 2 | 1019.2 |
| 20260506120025 | 52 | 244 | 0.0 | 0.0 | 0.00 | 0.00 | 0.00 | 2 | 1019.2 |
| 20260506114508 | 51 | 244 | 0.0 | 0.0 | 0.00 | 0.01 | 0.00 | 3 | 1019.1 |
| 20260506113003 | 51 | 244 | 0.0 | 0.0 | 0.00 | 0.01 | 0.00 | 5 | 1018.9 |
| 20260506111559 | 51 | 244 | 0.0 | 0.0 | 0.00 | 0.01 | 0.00 | 5 | 1018.9 |
| 20260506110111 | 51 | 244 | 0.0 | 0.0 | 0.00 | 0.01 | 0.00 | 3 | 1018.8 |
| 20260506104603 | 51 | 244 | 0.0 | 0.0 | 0.00 | 0.04 | 0.00 | 1 | 1018.6 |
| 20260506103048 | 51 | 244 | 0.0 | 0.0 | 0.00 | 0.04 | 0.00 | 1 | 1018.6 |
| 20260506101541 | 51 | 244 | 0.0 | 0.0 | 0.00 | 0.04 | 0.00 | 2 | 1018.6 |
| 20260506100039 | 51 | 244 | 0.0 | 0.0 | 0.00 | 0.04 | 0.00 | 3 | 1018.6 |
| 20260506094534 | 51 | 244 | 0.0 | 0.0 | 0.00 | 0.09 | 0.00 | 4 | 1018.5 |
| 20260506093031 | 51 | 244 | 0.0 | 0.0 | 0.00 | 0.09 | 0.00 | 5 | 1018.5 |
| 20260506091525 | 51 | 244 | 0.0 | 0.0 | 0.00 | 0.09 | 0.00 | 3 | 1018.6 |
| 20260506090020 | 51 | 263 | 0.0 | 0.0 | 0.00 | 0.09 | 0.00 | 2 | 1018.6 |
| 20260506084534 | 51 | 263 | 0.0 | 0.0 | 0.00 | 0.15 | 0.00 | 4 | 1018.6 |
| 20260506083012 | 51 | 263 | 0.0 | 0.0 | 0.00 | 0.15 | 0.00 | 6 | 1018.6 |
| 20260506081507 | 51 | 243 | 0.0 | 0.0 | 0.00 | 0.15 | 0.00 | 8 | 1018.5 |
| 20260506073054 | 51 | 235 | 0.0 | 0.0 | 0.00 | 0.20 | 0.00 | 11 | 1018.2 |
| 20260506071551 | 51 | 288 | 0.0 | 0.0 | 0.00 | 0.20 | 0.00 | 14 | 1018.1 |
| 20260506061537 | 51 | 238 | 0.0 | 0.0 | 0.00 | 0.25 | 0.20 | 33 | 1017.7 |
| 20260506044513 | 51 | 207 | 0.0 | 2.6 | 0.00 | 0.34 | 0.20 | 36 | 1017.1 |
| 20260506043004 | 51 | 217 | 0.0 | 3.5 | 0.00 | 0.34 | 0.20 | 36 | 1016.8 |
| 20260506041609 | 51 | 229 | 0.0 | 3.5 | 0.00 | 0.34 | 0.20 | 32 | 1016.7 |
| 20260506040056 | 51 | 203 | 0.9 | 4.3 | 0.00 | 0.34 | 0.20 | 35 | 1016.5 |
| 20260506034554 | 51 | 224 | 0.0 | 0.0 | 0.00 | 0.39 | 0.20 | 32 | 1016.4 |
| 20260506033046 | 51 | 273 | 0.0 | 0.0 | 0.00 | 0.39 | 0.20 | 29 | 1016.2 |
| 20260506031544 | 51 | 207 | 0.0 | 5.2 | 0.00 | 0.39 | 0.20 | 32 | 1015.8 |
| 20260506030040 | 51 | 195 | 0.0 | 2.6 | 0.00 | 0.39 | 0.20 | 39 | 1015.7 |
| 20260506024537 | 52 | 226 | 0.0 | 6.1 | 0.00 | 0.44 | 0.20 | 41 | 1015.6 |
| 20260506023048 | 52 | 217 | 0.9 | 5.2 | 0.00 | 0.44 | 0.20 | 41 | 1015.5 |
| 20260506021536 | 53 | 201 | 0.9 | 4.3 | 0.00 | 0.44 | 0.20 | 47 | 1015.4 |
| 20260506020025 | 53 | 207 | 0.0 | 7.0 | 0.00 | 0.44 | 0.20 | 53 | 1015.3 |
| 20260506014518 | 54 | 197 | 0.0 | 0.0 | 0.00 | 0.49 | 0.20 | 53 | 1015.2 |
| 20260506013014 | 54 | 202 | 0.0 | 6.1 | 0.00 | 0.49 | 0.20 | 54 | 1015.1 |
| 20260506011507 | 55 | 206 | 0.0 | 5.2 | 0.00 | 0.49 | 0.20 | 60 | 1015.0 |
| 20260506010002 | 56 | 199 | 0.9 | 6.1 | 0.00 | 0.49 | 0.20 | 61 | 1015.0 |
| 20260506004558 | 56 | 206 | 0.0 | 7.8 | 0.00 | 0.55 | 0.20 | 62 | 1014.9 |
| 20260506003056 | 57 | 201 | 0.9 | 5.2 | 0.00 | 0.55 | 0.20 | 63 | 1014.9 |
| 20260506001553 | 58 | 198 | 0.9 | 5.2 | 0.00 | 0.55 | 0.20 | 63 | 1014.8 |
| 20260506000048 | 59 | 251 | 0.9 | 5.2 | 0.00 | 0.55 | 0.20 | 64 | 1014.8 |
| 20260505234541 | 60 | 194 | 1.7 | 7.8 | 0.00 | 0.61 | 0.20 | 66 | 1014.8 |
| 20260505233037 | 61 | 226 | 1.7 | 5.2 | 0.00 | 0.61 | 0.20 | 67 | 1014.7 |
| 20260505231546 | 62 | 206 | 0.9 | 7.0 | 0.00 | 0.61 | 0.20 | 67 | 1014.7 |
| 20260505230027 | 63 | 205 | 0.0 | 5.2 | 0.00 | 0.61 | 0.20 | 67 | 1014.7 |
| 20260505224523 | 63 | 194 | 0.9 | 5.2 | 0.00 | 0.64 | 0.20 | 66 | 1014.8 |
| 20260505223019 | 62 | 201 | 0.0 | 5.2 | 0.00 | 0.64 | 0.20 | 66 | 1014.9 |
| 20260505221514 | 61 | 201 | 0.0 | 7.8 | 0.00 | 0.64 | 0.20 | 62 | 1015.0 |
| 20260505220009 | 61 | 199 | 2.6 | 9.6 | 0.00 | 0.64 | 0.20 | 65 | 1015.0 |
| 20260505214505 | 61 | 209 | 0.0 | 5.2 | 0.00 | 0.64 | 0.20 | 64 | 1015.1 |
| 20260505213059 | 61 | 201 | 0.0 | 4.3 | 0.00 | 0.64 | 0.20 | 60 | 1015.2 |
| 20260505211555 | 60 | 193 | 0.0 | 3.5 | 0.00 | 0.64 | 0.20 | 56 | 1015.3 |
| 20260505210051 | 59 | 206 | 0.0 | 4.3 | 0.00 | 0.64 | 0.20 | 56 | 1015.4 |
| 20260505204546 | 59 | 203 | 0.0 | 4.3 | 0.00 | 0.64 | 0.20 | 52 | 1015.4 |
| 20260505203058 | 58 | 197 | 0.0 | 5.2 | 0.00 | 0.64 | 0.20 | 51 | 1015.4 |
| 20260505201543 | 58 | 195 | 0.0 | 3.5 | 0.00 | 0.64 | 0.20 | 51 | 1015.5 |
| 20260505200033 | 58 | 203 | 0.0 | 0.9 | 0.00 | 0.64 | 0.20 | 53 | 1015.6 |
| 20260505194528 | 58 | 215 | 0.0 | 0.0 | 0.00 | 0.64 | 0.20 | 51 | 1015.4 |
| 20260505193031 | 58 | 205 | 0.0 | 3.5 | 0.00 | 0.64 | 0.20 | 56 | 1015.6 |
| 20260505191520 | 58 | 201 | 0.0 | 0.0 | 0.00 | 0.64 | 0.20 | 46 | 1015.5 |
| 20260505190015 | 58 | 214 | 0.0 | 0.0 | 0.00 | 0.64 | 0.20 | 48 | 1015.5 |
| 20260505184511 | 58 | 259 | 0.0 | 0.0 | 0.00 | 0.64 | 0.20 | 49 | 1015.5 |
| 20260505183012 | 56 | 172 | 0.0 | 0.0 | 0.00 | 0.64 | 0.20 | 41 | 1015.6 |
| 20260505181502 | 57 | 170 | 0.0 | 0.0 | 0.00 | 0.64 | 0.20 | 24 | 1015.4 |
| 20260505174555 | 55 | 189 | 0.0 | 0.0 | 0.00 | 0.64 | 0.20 | 23 | 1015.3 |
| 20260505173055 | 55 | 204 | 0.0 | 2.6 | 0.00 | 0.64 | 0.20 | 7 | 1015.1 |
| 20260505171547 | 54 | 168 | 0.0 | 0.0 | 0.00 | 0.64 | 0.20 | 1 | 1015.0 |